Weather History for Ouarzazate, Morocco

Change the Weather History Date:

Tuesday, January 28, 2014

  Actual Average Record
Temperature  
Mean Temperature 60 °F -  
Max Temperature 73 °F 67 °F - ()
Min Temperature 46 °F 40 °F - ()
Degree Days  
Heating Degree Days 6    
Growing Degree Days 10 (Base 50)    
Moisture  
Dew Point 12 °F    
Average Humidity 15    
Maximum Humidity 27    
Minimum Humidity 4    
Precipitation  
Precipitation 0.00 in 0.02 in - ()
Sea Level Pressure  
Sea Level Pressure 29.92 in    
Wind  
Wind Speed 3 mph ()    
Max Wind Speed 6 mph    
Max Gust Speed -    
Visibility 12.0 miles    
Events      
T = Trace of Precipitation, MM = Missing Value Source: Averaged Metar Reports

Daily Weather History Graph

Daily Weather History Graph

Search for Another Location

Airport:

Trip Planner

Search our weather history database for the weather conditions in past years. The results will help you decide how hot, cold, wet, or windy it might be!

Date:

Astronomy

Jan. 28, 2014 Rise Set
Actual Time 7:21 AM WET 5:59 PM WET
Civil Twilight 6:56 AM WET 6:25 PM WET
Nautical Twilight 6:27 AM WET 6:54 PM WET
Astronomical Twilight 5:58 AM WET 7:22 PM WET
Moon 4:47 AM WET (1/28) 3:36 PM WET (1/28)
Length of Visible Light 11h 28m
Length of Day
10h 37m
Waning Crescent, 9% of the Moon is Illuminated
Jan 28
Waning Crescent
Jan 30
New
Feb 6
First Quarter
Feb 14
Full
Feb 22
Last Quarter

Hourly Weather History & Observations

Time (WET) Temp. Dew Point Humidity Pressure Visibility Wind Dir Wind Speed Gust Speed Precip Events Conditions
12:00 AM 55 °F 8 °F 7%  in 12 mi West 5.8 mph - -  
12:00 AM 55.4 °F 8.6 °F 15% 30.06 in - WSW 5.8 mph - N/A   Clear
1:00 AM 53.6 °F 6.8 °F 15% 30.04 in - West 5.8 mph - N/A   Clear
2:00 AM 55.4 °F 6.8 °F 14% 30.04 in - WSW 4.6 mph - N/A   Clear
3:00 AM 50 °F 11 °F 10%  in 12 mi SW 3.5 mph - -  
3:00 AM 50.0 °F 10.4 °F 20% 29.98 in - SW 3.5 mph - N/A   Clear
4:00 AM 50.0 °F 10.4 °F 20% 29.98 in - SW 3.5 mph - N/A   Clear
5:00 AM 50.0 °F 10.4 °F 20% 29.98 in - West 4.6 mph - N/A   Clear
6:00 AM 49 °F 13 °F 12%  in 12 mi West 1.2 mph - -  
6:00 AM 48.2 °F 14.0 °F 25% 29.95 in - Variable 1.2 mph - N/A   Clear
7:00 AM 46.4 °F 12.2 °F 25% 29.95 in - Variable 1.2 mph - N/A   Clear
8:00 AM 46.4 °F 14.0 °F 27% 29.98 in - Variable 2.3 mph - N/A   Clear
9:00 AM 47 °F 14 °F 14%  in 12 mi ESE 2.3 mph - -  
9:00 AM 46.4 °F 14.0 °F 27% 29.98 in - Variable 2.3 mph - N/A   Clear
10:00 AM 51.8 °F 15.8 °F 24% 29.98 in - Variable 2.3 mph - N/A   Clear
11:00 AM 59.0 °F 15.8 °F 19% 30.01 in - Calm Calm - N/A   Clear
12:00 PM 62.6 °F 14.0 °F 15% 29.98 in - Variable 2.3 mph - N/A   Clear
1:00 PM 66.2 °F 12.2 °F 12% 29.92 in - Variable 2.3 mph - N/A   Clear
2:00 PM 69.8 °F 12.2 °F 11% 29.86 in - Variable 1.2 mph - N/A   Clear
3:00 PM 73 °F 11 °F 4%  in 12 mi Calm Calm - -  
3:00 PM 73.4 °F 10.4 °F 9% 29.83 in - Calm Calm - N/A   Clear
4:00 PM 73.4 °F 10.4 °F 9% 29.83 in - Calm Calm - N/A   Clear
5:00 PM 73.4 °F 5.0 °F 7% 29.80 in - Variable 3.5 mph - N/A   Clear
6:00 PM 72 °F 4 °F 4%  in 12 mi Calm Calm - -  
6:00 PM 71.6 °F 5.0 °F 7% 29.80 in - Calm Calm - N/A   Clear
7:00 PM 68.0 °F 10.4 °F 11% 29.80 in - Variable 2.3 mph - N/A   Clear
8:00 PM 62.6 °F 14.0 °F 15% 29.83 in - Variable 3.5 mph - N/A   Clear
9:00 PM 60 °F 30 °F 20%  in 12 mi West 5.8 mph - -  
9:00 PM 59.0 °F 14.0 °F 17% 29.83 in - West 5.8 mph - N/A   Clear
10:00 PM 57.2 °F 17.6 °F 21% 29.83 in - Variable 3.5 mph - N/A   Clear
11:00 PM 53.6 °F 17.6 °F 24% 29.83 in - Variable 2.3 mph - N/A   Clear